Weather in Ontario

United States     34°03′16″N   117°37′39″W
temp.,
°C
wind,
m/s
gust,
m/s
humid.,
%
clouds,
%
prec.,
mm/h
press.,
hPa
HPBL,
m
23 may, mon
mon2323:00+16sw21701 0.0 1015288
02:00+15sw227771 0.0 1014227
05:00+14sw12826 0.0 1013162
08:00+16sw22722 0.0 1014337
11:00+21sw43462 0.0 1012681
14:00+25wsw55365 0.0 1010826
17:00+23sw554131 0.0 1010726
20:00+19wsw335648 0.0 1010419
24 may, tue
tue2423:00+17sw22655 0.0 1011257
02:00+16wsw227187 0.0 1010171
05:00+15wsw127510 0.0 1010107
08:00+18wsw11585 0.0 1009198
11:00+25wsw323226 0.0 1009512
14:00+29wsw54265 0.0 1008730
17:00+27wsw55344 0.0 1008653
20:00+22wsw33485 0.0 1009358
25 may, wed
wed2523:00+20wsw22570 0.0 1010223
02:00+18sw22644 0.0 1010137
05:00+17wsw11670 0.0 100947
08:00+21sw11510 0.0 1010171
11:00+27wsw32330 0.0 1010565
14:00+29wsw55315 0.0 1010760
17:00+27sw55360 0.0 1010740
20:00+22wsw44520 0.0 1011441
26 may, thu
thu2623:00+20wsw22610 0.0 1012301
02:00+18wsw11670 0.0 1011195
05:00+18wsw12716 0.0 1011106
08:00+20wsw116243 0.0 1013296
11:00+25wsw33426 0.0 1013750
14:00+28wsw54320 0.0 1012948
17:00+26sw44345 0.0 1012756
20:00+22wsw444994 0.0 1013505
27 may, fri
fri2723:00+19wsw336348 0.0 1015394
02:00+18ssw1170100 0.0 1014262
05:00+17sw117368 0.0 1014180
08:00+19wsw11659 0.0 1015370
11:00+24wsw3341100 0.0 1015856
14:00+27wsw552925 0.0 10131059
17:00+26sw553145 0.0 1012976
20:00+21sw444788 0.0 1013558